When you browse on this site, cookies collect data to enhance your experience and personalize the content and advertising you see.
Visit our Privacy Policy to learn more. By continuing to use the site, you agree to this use of cookies and data.
  • In United Kingdom
  • List of Countries
  • For 7 days
  • Water Temperature
  • Weather Map
  • Weather Widgets
  • user-avatar
    Login

    Hourly Weather Glasgow

    Today, 18 August, Sunday

    Time Temperature Precipitation Wind Pressure Humidity
    00:00 +11°C° 0 mm 8 mps 743 mmHg 87%
    01:00 +11°C° 0 mm 8 mps 743 mmHg 86%
    02:00 +10°C° 0 mm 8 mps 743 mmHg 86%
    03:00 +10°C° 0 mm 8 mps 742 mmHg 86%
    04:00 +11°C° 0 mm 8 mps 742 mmHg 86%
    05:00 +11°C° 0 mm 8 mps 742 mmHg 87%
    06:00 +11°C° 0 mm 9 mps 742 mmHg 89%
    07:00 +12°C° 0.1 mm 9 mps 742 mmHg 88%
    08:00 +12°C° 0.1 mm 9 mps 742 mmHg 87%
    09:00 +13°C° 0.1 mm 9 mps 742 mmHg 86%
    10:00 +15°C° 0.1 mm 9 mps 742 mmHg 79%
    11:00 +16°C° 0.1 mm 9 mps 741 mmHg 73%
    12:00 +17°C° 0.1 mm 9 mps 741 mmHg 67%
    13:00 +17°C° 0.1 mm 9 mps 741 mmHg 68%
    14:00 +17°C° 0.1 mm 9 mps 741 mmHg 69%
    15:00 +17°C° 0.1 mm 9 mps 741 mmHg 71%
    16:00 +16°C° 0.3 mm 9 mps 742 mmHg 73%
    17:00 +16°C° 0.3 mm 8 mps 742 mmHg 76%
    18:00 +16°C° 0.3 mm 7 mps 742 mmHg 79%
    19:00 +14°C° 0.1 mm 7 mps 743 mmHg 81%
    20:00 +13°C° 0.1 mm 6 mps 743 mmHg 84%
    21:00 +10°C° 0.1 mm 6 mps 744 mmHg 87%
    22:00 +10°C° 0 mm 6 mps 745 mmHg 87%
    23:00 +10°C° 0 mm 5 mps 745 mmHg 87%

    Tomorrow, 19 August, Monday

    Time Temperature Precipitation Wind Pressure Humidity
    00:00 +9°C° 0 mm 5 mps 746 mmHg 88%
    01:00 +10°C° 0 mm 5 mps 746 mmHg 86%
    02:00 +10°C° 0 mm 5 mps 746 mmHg 85%
    03:00 +10°C° 0 mm 5 mps 747 mmHg 83%
    04:00 +10°C° 0 mm 5 mps 747 mmHg 84%
    05:00 +11°C° 0 mm 4 mps 747 mmHg 84%
    06:00 +11°C° 0 mm 4 mps 748 mmHg 84%
    07:00 +13°C° 0 mm 5 mps 748 mmHg 80%
    08:00 +14°C° 0 mm 5 mps 749 mmHg 75%
    09:00 +16°C° 0 mm 5 mps 749 mmHg 71%
    10:00 +16°C° 0.4 mm 5 mps 749 mmHg 69%
    11:00 +17°C° 0.4 mm 5 mps 750 mmHg 67%
    12:00 +17°C° 0.4 mm 5 mps 750 mmHg 65%
    13:00 +17°C° 0.7 mm 5 mps 751 mmHg 66%
    14:00 +17°C° 0.7 mm 5 mps 751 mmHg 68%
    15:00 +17°C° 0.7 mm 5 mps 751 mmHg 69%
    16:00 +17°C° 0.6 mm 5 mps 752 mmHg 72%
    17:00 +17°C° 0.6 mm 4 mps 752 mmHg 76%
    18:00 +15°C° 0.6 mm 4 mps 752 mmHg 79%
    19:00 +14°C° 0.3 mm 4 mps 753 mmHg 81%
    20:00 +13°C° 0.3 mm 4 mps 754 mmHg 84%
    21:00 +12°C° 0.3 mm 4 mps 754 mmHg 86%
    22:00 +10°C° 0.2 mm 5 mps 755 mmHg 88%
    23:00 +10°C° 0.2 mm 5 mps 755 mmHg 90%

    Day after tomorrow, 20 August, Tuesday

    Time Temperature Precipitation Wind Pressure Humidity
    00:00 +10°C° 0.2 mm 6 mps 756 mmHg 92%
    01:00 +9°C° 0 mm 5 mps 756 mmHg 92%
    02:00 +10°C° 0 mm 4 mps 757 mmHg 92%
    03:00 +10°C° 0 mm 4 mps 757 mmHg 91%
    04:00 +10°C° 0.1 mm 3 mps 758 mmHg 91%
    05:00 +10°C° 0.1 mm 3 mps 758 mmHg 91%
    06:00 +10°C° 0.1 mm 3 mps 759 mmHg 91%
    07:00 +11°C° 0.1 mm 3 mps 759 mmHg 86%
    08:00 +11°C° 0.1 mm 3 mps 760 mmHg 80%
    09:00 +12°C° 0.1 mm 3 mps 760 mmHg 75%
    10:00 +12°C° 0 mm 3 mps 761 mmHg 73%
    11:00 +14°C° 0 mm 2 mps 761 mmHg 71%
    12:00 +14°C° 0 mm 1 mps 762 mmHg 69%
    13:00 +15°C° 0 mm 2 mps 762 mmHg 70%
    14:00 +15°C° 0 mm 2 mps 762 mmHg 70%
    15:00 +14°C° 0 mm 3 mps 762 mmHg 71%
    16:00 +14°C° 0 mm 3 mps 762 mmHg 74%
    17:00 +13°C° 0 mm 3 mps 763 mmHg 78%
    18:00 +13°C° 0 mm 4 mps 763 mmHg 81%
    19:00 +12°C° 0 mm 4 mps 763 mmHg 86%
    20:00 +11°C° 0 mm 4 mps 763 mmHg 91%
    21:00 +10°C° 0 mm 4 mps 764 mmHg 95%
    22:00 +10°C° 0 mm 4 mps 764 mmHg 95%
    23:00 +10°C° 0 mm 4 mps 763 mmHg 96%

    21 August, Wednesday

    Time Temperature Precipitation Wind Pressure Humidity
    00:00 +10°C° 0 mm 4 mps 763 mmHg 96%
    01:00 +11°C° 0 mm 4 mps 763 mmHg 94%
    02:00 +11°C° 0 mm 4 mps 763 mmHg 92%
    03:00 +11°C° 0 mm 4 mps 763 mmHg 91%
    04:00 +11°C° 0 mm 4 mps 763 mmHg 91%
    05:00 +11°C° 0 mm 4 mps 763 mmHg 92%
    06:00 +11°C° 0 mm 4 mps 762 mmHg 92%
    07:00 +12°C° 0 mm 4 mps 763 mmHg 86%
    08:00 +14°C° 0 mm 5 mps 763 mmHg 80%
    09:00 +16°C° 0 mm 5 mps 763 mmHg 74%
    10:00 +16°C° 0 mm 6 mps 762 mmHg 72%
    11:00 +17°C° 0 mm 6 mps 762 mmHg 70%
    12:00 +17°C° 0 mm 7 mps 762 mmHg 68%
    13:00 +17°C° 0 mm 7 mps 761 mmHg 68%
    14:00 +17°C° 0 mm 7 mps 761 mmHg 69%
    15:00 +17°C° 0 mm 7 mps 761 mmHg 70%
    16:00 +16°C° 0.4 mm 6 mps 761 mmHg 76%
    17:00 +15°C° 0.4 mm 6 mps 761 mmHg 82%
    18:00 +14°C° 0.4 mm 5 mps 761 mmHg 89%
    19:00 +14°C° 0.2 mm 5 mps 761 mmHg 90%
    20:00 +13°C° 0.2 mm 5 mps 761 mmHg 91%
    21:00 +13°C° 0.2 mm 5 mps 760 mmHg 93%
    22:00 +12°C° 0.1 mm 5 mps 761 mmHg 94%
    23:00 +12°C° 0.1 mm 5 mps 761 mmHg 94%

    22 August, Thursday

    Time Temperature Precipitation Wind Pressure Humidity
    00:00 +12°C° 0.1 mm 5 mps 761 mmHg 95%
    01:00 +10°C° 0 mm 5 mps 760 mmHg 95%
    02:00 +11°C° 0 mm 4 mps 760 mmHg 95%
    03:00 +10°C° 0 mm 4 mps 760 mmHg 95%
    04:00 +10°C° 0 mm 4 mps 760 mmHg 93%
    05:00 +10°C° 0 mm 4 mps 761 mmHg 92%
    06:00 +10°C° 0 mm 4 mps 761 mmHg 90%
    07:00 +11°C° 0 mm 4 mps 761 mmHg 85%
    08:00 +13°C° 0 mm 4 mps 761 mmHg 80%
    09:00 +14°C° 0 mm 4 mps 762 mmHg 75%
    10:00 +15°C° 0 mm 5 mps 762 mmHg 70%
    11:00 +16°C° 0 mm 5 mps 762 mmHg 66%
    12:00 +17°C° 0 mm 6 mps 762 mmHg 62%
    13:00 +17°C° 0 mm 6 mps 761 mmHg 63%
    14:00 +17°C° 0 mm 7 mps 761 mmHg 65%
    15:00 +16°C° 0 mm 7 mps 761 mmHg 67%
    16:00 +16°C° 0 mm 8 mps 761 mmHg 69%
    17:00 +15°C° 0 mm 8 mps 760 mmHg 72%
    18:00 +13°C° 0 mm 9 mps 760 mmHg 75%
    19:00 +13°C° 0 mm 9 mps 760 mmHg 76%
    20:00 +13°C° 0 mm 10 mps 760 mmHg 77%
    21:00 +13°C° 0 mm 10 mps 759 mmHg 79%
    22:00 +13°C° 0 mm 9 mps 759 mmHg 81%
    23:00 +13°C° 0 mm 9 mps 759 mmHg 82%

    23 August, Friday

    Time Temperature Precipitation Wind Pressure Humidity
    00:00 +15°C° 0 mm 9 mps 759 mmHg 84%
    01:00 +15°C° 0 mm 9 mps 758 mmHg 85%
    02:00 +15°C° 0 mm 8 mps 758 mmHg 86%
    03:00 +16°C° 0 mm 8 mps 758 mmHg 87%
    04:00 +16°C° 0 mm 9 mps 758 mmHg 86%
    05:00 +16°C° 0 mm 9 mps 758 mmHg 85%
    06:00 +16°C° 0 mm 9 mps 758 mmHg 84%
    07:00 +16°C° 0 mm 9 mps 758 mmHg 83%
    08:00 +16°C° 0 mm 9 mps 758 mmHg 82%
    09:00 +17°C° 0 mm 9 mps 759 mmHg 81%
    10:00 +17°C° 0 mm 9 mps 759 mmHg 78%
    11:00 +18°C° 0 mm 9 mps 759 mmHg 76%
    12:00 +18°C° 0 mm 9 mps 759 mmHg 73%
    13:00 +18°C° 0 mm 8 mps 759 mmHg 74%
    14:00 +18°C° 0 mm 8 mps 759 mmHg 74%
    15:00 +18°C° 0 mm 8 mps 759 mmHg 75%
    16:00 +18°C° 0 mm 7 mps 759 mmHg 77%
    17:00 +17°C° 0 mm 7 mps 759 mmHg 79%
    18:00 +17°C° 0 mm 7 mps 759 mmHg 81%
    19:00 +17°C° 0 mm 7 mps 760 mmHg 83%
    20:00 +16°C° 0 mm 7 mps 760 mmHg 85%
    21:00 +16°C° 0 mm 7 mps 760 mmHg 87%
    22:00 +16°C° 0 mm 7 mps 760 mmHg 88%
    23:00 +16°C° 0 mm 7 mps 760 mmHg 88%
    Show more